Location: Bishausen
(51.6334°N, 9.9631°E)
Time: 11:09:30
(UTC+00:00)

Helios 1A Rocket - Pass Details

Date: 23 May 2024
Orbit: 520 x 543 km, 98.3° (Epoch: 23 June)

Event Time Altitude Azimuth Distance (km) Brightness Sun altitude
Exits shadow 00:09:49 30° 156° (SSE) 984 3.7 -16.8°
Maximum altitude 00:11:40 80° 75° (ENE) 551 2.8 -16.7°
Drops below altitude 10° 00:15:32 10° 347° (NNW) 1,794 6.4 -16.6°
Sets 00:17:39 0° 347° (NNW) 2,685 7.5 -16.5°
